Temperature
19 19 19 19 19 19 19 19 19 19 19 19 19 19 19 18 18 18 18 18 18 18 18 18 18 18 18 18 18 17 17 17 17 17 17 17 17 17 16 16 16 16 16
19 19 19 19 19 19 19 19 19 19 19 19 19 19 19 18 18 18 18 18 18 18 18 18 18 17 17 17 17 17 17 17 17 17 17 17 17 17 17 16 16 16 16
19 19 19 19 19 19 19 19 19 19 19 19 19 19 18 18 18 18 18 18 18 18 18 18 18 17 17 17 17 17 17 17 17 17 17 17 17 16 16 16 16 16 16
19 19 19 19 19 19 19 19 19 19 19 19 19 19 18 18 18 18 18 18 18 18 18 18 18 18 17 17 17 17 17 17 17 17 17 17 17 16 16 16 16 16 16
19 19 19 19 19 19 19 19 19 19 19 19 19 19 18 18 18 18 18 18 18 18 18 18 18 17 17 17 17 17 17 17 17 17 17 17 17 16 16 16 16 16 16
19 19 19 19 19 19 19 19 19 19 19 19 19 19 18 18 18 18 18 18 18 18 18 18 18 17 17 17 17 17 17 17 17 17 17 17 17 16 16 16 16 16 16
19 19 19 19 19 19 19 19 19 19 19 19 19 19 18 18 18 18 18 18 18 18 18 18 18 18 18 17 17 17 17 17 17 17 17 17 16 16 16 16 16 16 16
19 19 19 19 19 19 19 19 19 19 19 19 19 19 18 18 18 18 18 18 18 18 18 18 18 18 18 18 17 17 17 17 17 17 17 17 16 16 16 16 16 16 15
19 19 19 19 19 19 19 19 19 19 19 19 19 19 18 18 18 18 18 18 18 18 18 18 18 18 18 18 17 17 17 17 17 17 17 17 16 16 16 16 16 15 15
19 19 19 19 19 19 19 19 19 19 19 19 19 19 19 18 18 18 18 18 18 18 18 18 18 18 18 18 17 17 17 17 17 17 17 17 16 16 16 16 16 15 15
19 19 19 19 19 19 19 19 19 19 19 19 19 19 18 18 18 18 18 18 18 18 18 18 18 18 18 18 17 17 17 17 17 17 17 17 16 16 16 16 16 15 15
19 19 19 19 19 19 19 19 19 19 19 19 18 18 18 18 18 18 18 18 18 18 18 18 18 18 18 17 17 17 17 17 17 17 17 16 16 16 16 16 16 15 15
19 19 19 19 19 19 19 19 19 19 19 18 18 18 18 18 18 18 18 18 18 18 18 18 17 17 17 17 17 17 17 17 17 17 17 16 16 16 16 16 16 15 15
19 19 19 19 19 19 19 19 19 19 18 18 18 18 18 18 18 18 18 18 17 17 17 17 17 17 17 17 17 17 17 17 17 17 16 16 16 16 16 16 15 15 15
19 19 19 19 19 19 19 19 19 18 18 18 18 18 18 18 18 18 18 17 17 17 17 17 17 17 17 17 17 17 17 17 16 16 16 16 16 16 15 15 15 15 15
19 19 19 19 19 19 19 19 18 18 18 18 18 18 18 18 18 17 17 17 17 17 17 17 17 17 17 17 17 17 17 16 16 16 16 16 16 15 15 15 15 15 15
19 19 19 19 19 19 19 18 18 18 18 18 18 18 18 17 17 17 17 17 17 17 17 17 17 17 17 16 16 16 16 16 16 16 16 15 15 15 15 15 15 15 14
19 19 19 19 19 18 18 18 18 18 18 18 18 18 17 17 17 17 17 17 17 17 16 16 16 16 16 16 16 16 16 16 15 15 15 15 15 15 15 15 14 14 14
19 19 19 18 18 18 18 18 18 18 18 18 18 18 17 17 17 17 16 16 16 16 16 16 16 16 16 16 16 15 15 15 15 15 15 15 15 15 14 14 14 14 14
19 19 18 18 18 18 18 18 18 18 17 17 17 17 17 17 17 17 16 16 16 16 16 16 15 15 15 15 15 15 15 15 15 15 14 14 14 14 14 14 14 14 14
19 18 18 18 18 18 18 18 17 17 17 17 17 17 17 17 16 16 16 16 16 16 15 15 15 15 15 14 14 14 14 14 14 14 14 14 14 14 14 14 14 13 13
18 18 18 18 18 18 18 17 17 17 17 17 17 17 16 16 16 16 16 16 15 15 15 15 14 14 14 14 14 14 14 14 14 14 14 14 14 14 14 14 14 13 13
18 18 18 18 18 17 17 17 17 17 17 17 17 16 16 16 16 16 16 15 15 15 15 14 14 14 14 14 14 13 13 13 13 13 13 13 13 13 13 13 13 13 13
18 18 18 17 17 17 17 17 17 17 16 16 16 16 16 16 16 15 15 15 15 15 14 14 14 14 14 14 13 13 13 13 13 13 13 13 13 13 13 13 13 13 13
18 17 17 17 17 17 17 17 16 16 16 16 16 16 15 15 15 15 15 15 15 15 14 14 14 14 14 13 13 13 13 13 13 13 13 12 13 13 13 13 13 12 12
17 17 17 17 17 17 16 16 16 16 16 16 15 15 15 15 15 15 15 14 14 14 14 14 14 13 13 13 13 13 13 12 12 12 12 12 12 12 12 12 12 12 12
Wind_Speed
3 2 2 3 3 3 3 3 2 2 3 3 4 5 5 5 6 7 8 13 14 13 13 13 13 12 12 12 11 10 10 10 9 10 10 10 10 9 9 9 10 10 10
3 3 2 2 2 3 4 4 4 3 2 3 3 4 5 6 6 7 7 11 13 13 12 13 13 13 12 12 12 11 11 11 10 10 10 10 10 10 10 10 10 11 11
4 3 2 2 2 3 3 3 2 2 2 2 3 3 4 5 6 7 8 8 9 11 12 12 12 12 12 12 12 11 11 11 10 10 11 11 11 11 12 11 11 11 12
5 3 2 2 3 3 3 3 2 2 1 1 2 2 3 4 5 6 7 7 8 8 10 12 12 12 11 11 11 11 11 11 11 11 10 11 11 11 12 12 12 11 11
5 3 2 1 2 2 2 3 3 3 2 2 2 2 2 3 4 5 5 6 7 8 8 10 11 11 11 11 11 11 10 10 10 11 11 11 11 11 11 11 11 11 11
4 4 2 2 2 2 2 2 2 2 2 2 2 1 2 3 3 4 5 5 7 9 9 9 9 9 12 12 11 11 11 11 11 12 12 12 11 11 11 12 12 12 12
4 3 2 2 2 2 2 3 2 2 1 1 2 1 1 0 2 3 3 3 5 7 8 8 8 7 8 10 12 12 11 12 12 12 13 13 12 12 12 12 12 12 12
4 4 3 2 2 2 2 2 2 2 1 2 3 2 1 3 2 3 2 3 4 4 5 8 8 8 8 7 8 11 12 12 12 12 12 13 13 13 12 12 11 12 13
3 3 3 3 2 2 2 2 3 3 2 1 2 3 2 2 2 2 2 3 4 4 5 5 7 8 9 8 7 9 11 11 11 11 12 13 12 11 10 10 10 11 12
3 3 3 3 2 2 2 2 2 2 3 1 1 1 2 3 2 1 2 2 2 3 4 4 4 6 7 8 8 9 10 10 9 9 8 9 9 10 10 10 10 10 10
2 2 3 3 2 2 2 1 1 2 2 2 1 1 1 0 1 2 1 3 2 2 2 3 3 3 5 6 7 8 9 9 8 8 7 7 8 9 9 9 9 9 8
1 1 2 2 2 2 2 2 2 2 2 2 2 2 2 2 2 2 2 2 2 3 2 2 2 3 4 5 6 7 9 10 9 8 8 7 8 8 8 8 8 8 8
1 2 2 2 1 2 2 2 2 1 1 2 2 2 2 2 2 2 2 2 2 2 2 1 2 2 3 4 5 7 8 9 9 9 9 9 8 8 7 7 7 7 8
3 2 2 2 2 2 2 2 2 1 1 1 1 1 1 2 2 2 2 2 1 2 2 3 2 2 3 3 5 7 6 8 9 9 9 9 9 8 8 7 7 7 7
3 2 3 3 2 2 2 2 1 1 1 1 1 1 1 1 1 1 2 3 3 2 3 3 2 2 2 2 3 3 4 7 8 9 9 9 9 9 9 8 7 7 7
3 3 3 3 3 2 2 2 1 1 1 1 1 1 1 1 1 1 1 2 2 3 3 3 2 2 2 1 3 3 4 5 7 7 8 8 9 9 9 9 8 8 7
4 4 3 3 3 3 3 2 2 2 2 2 2 2 2 2 1 1 1 1 2 2 3 3 2 1 1 2 2 2 3 3 4 6 7 7 8 8 9 9 8 8 7
3 3 3 3 3 3 3 3 3 2 3 3 3 2 3 2 2 2 1 2 2 2 3 3 2 2 2 2 2 2 1 2 4 5 6 6 7 7 8 9 8 8 8
3 2 2 3 3 3 3 3 4 3 3 4 3 3 3 2 2 2 2 2 2 2 1 2 3 2 2 2 1 2 2 2 2 3 5 6 6 7 7 8 8 8 8
3 3 3 3 3 3 3 3 3 3 3 3 3 4 4 4 4 4 3 3 2 1 1 1 2 2 2 2 1 2 2 2 2 2 3 4 4 6 7 6 6 7 7
4 3 3 3 3 3 3 3 3 3 3 3 3 3 4 5 5 5 3 3 3 2 1 1 2 2 2 2 2 2 2 3 3 2 2 2 2 3 4 6 7 7 7
4 3 4 4 3 3 4 4 4 3 3 4 4 4 3 3 4 4 4 4 4 4 3 2 2 3 4 3 2 2 2 1 3 2 1 3 2 3 4 5 7 7 8
4 4 3 3 4 5 5 5 5 4 4 4 4 3 3 2 2 2 2 2 2 3 4 5 4 5 4 4 3 3 3 3 4 3 1 3 2 4 4 5 7 8 8
4 4 4 4 4 5 5 6 5 4 3 4 4 4 4 3 2 2 2 1 2 2 3 3 4 5 5 4 4 4 4 3 3 3 2 3 3 3 4 4 7 7 7
4 4 3 4 4 4 5 5 4 2 3 4 4 4 4 3 3 4 3 2 1 3 3 2 2 3 3 3 2 0 1 1 3 3 1 2 2 3 3 3 4 7 8
4 4 3 3 3 3 3 3 3 2 3 3 3 3 3 4 4 5 4 3 3 3 2 2 2 2 2 2 2 3 3 2 2 3 2 1 2 1 2 2 2 3 4
Wind_Direction
147 161 169 176 184 179 174 170 180 181 178 173 169 158 158 156 161 166 175 181 182 186 188 187 190 192 194 197 199 203 208 211 215 214 214 216 218 219 218 217 218 217 216
150 150 153 166 171 176 167 166 175 171 171 162 173 169 163 161 165 169 171 182 188 191 194 196 200 202 203 206 208 209 212 215 217 217 216 217 218 220 222 223 222 222 223
160 148 140 158 184 169 155 147 149 145 166 167 173 179 166 168 171 173 177 184 193 200 203 204 205 207 210 213 214 214 216 217 219 221 222 224 224 225 227 228 228 227 226
155 141 146 181 187 162 151 143 136 144 164 175 186 200 185 175 178 179 181 188 194 201 207 209 209 209 213 216 216 216 220 222 223 225 227 229 229 230 231 233 233 230 229
153 142 147 169 156 141 140 157 151 158 170 188 205 203 194 189 188 188 188 191 197 205 204 209 212 216 219 221 221 221 224 227 228 229 232 234 234 234 233 232 232 232 232
155 145 145 154 140 125 127 142 153 158 176 185 194 189 206 198 191 197 199 195 198 207 203 206 210 221 224 227 228 226 230 236 238 238 237 238 237 236 235 233 232 232 232
158 147 142 146 145 147 164 163 156 153 170 146 109 18 338 271 209 214 209 198 207 208 201 205 206 211 218 224 226 228 232 233 236 237 239 239 239 238 237 234 233 232 232
160 158 149 158 157 149 148 157 151 155 183 149 137 116 352 345 320 246 220 212 221 207 206 208 201 206 213 217 225 228 231 236 240 242 244 245 240 240 237 234 233 234 234
159 152 148 155 156 158 178 189 166 162 183 235 153 152 160 224 288 315 255 231 224 215 216 209 205 208 213 217 223 231 234 236 241 242 242 243 241 241 243 242 240 239 238
161 162 151 156 150 153 170 187 157 155 152 193 252 196 179 168 169 302 323 290 253 227 228 222 218 213 213 214 221 230 230 230 236 241 243 242 234 235 239 243 245 246 243
167 162 152 150 144 151 161 156 136 147 161 165 170 170 147 92 147 164 263 305 313 278 235 215 210 207 204 207 216 227 228 224 224 230 235 240 239 238 236 238 243 244 241
174 156 148 143 146 149 157 166 164 156 163 160 165 162 160 163 186 172 213 257 285 291 279 243 216 210 203 207 220 230 227 223 220 223 227 232 235 235 233 235 240 244 247
189 206 173 158 155 160 162 161 159 167 173 171 184 194 183 197 182 166 170 228 270 289 307 300 255 223 209 206 224 237 233 224 225 228 230 230 232 230 228 228 235 241 244
200 199 184 179 176 175 174 164 164 190 161 175 191 186 194 230 200 182 179 184 265 309 312 287 297 251 239 222 234 238 238 229 229 232 233 233 233 233 230 230 231 235 237
199 196 190 188 186 178 177 169 172 200 179 183 197 190 207 239 229 218 193 181 180 240 276 270 274 270 257 242 249 235 242 238 233 232 233 234 232 228 230 230 228 230 235
198 184 187 190 195 192 186 170 175 193 175 216 204 181 213 238 230 229 206 197 181 190 240 259 257 261 254 282 268 247 252 253 245 235 230 229 230 227 229 230 231 232 237
192 196 197 191 191 191 187 177 195 187 191 225 232 204 227 227 220 227 215 204 199 178 220 274 285 289 294 294 300 281 268 255 255 245 232 227 229 229 230 233 235 234 236
199 201 195 189 187 189 191 193 209 209 206 222 236 225 237 225 223 233 211 216 220 202 188 247 283 292 274 263 260 263 274 279 257 255 240 235 233 232 234 235 235 233 233
199 207 194 194 201 198 198 204 203 209 214 223 228 226 232 211 223 232 225 225 230 224 189 202 265 273 277 270 282 290 286 272 276 267 251 250 246 241 236 234 235 234 236
196 208 208 213 216 215 211 207 200 208 217 226 228 226 223 215 217 213 215 218 212 201 206 213 260 275 266 270 254 275 295 293 286 283 269 258 255 246 236 233 235 235 236
206 207 210 223 226 224 224 205 207 213 215 232 241 237 234 230 226 216 211 200 192 191 209 228 259 281 281 272 261 258 277 293 285 268 266 257 242 248 246 243 241 239 235
208 205 217 224 228 238 231 212 206 216 216 221 235 245 246 244 232 213 196 188 182 189 204 218 244 250 262 254 253 255 261 296 293 278 244 268 237 251 247 243 241 231 228
207 211 218 218 232 244 235 223 214 209 214 221 227 232 246 249 210 201 184 175 218 223 203 200 220 239 242 238 230 248 240 240 253 256 230 275 263 261 261 256 247 238 232
207 214 223 226 234 248 235 224 218 214 221 229 225 219 225 234 221 192 193 201 247 269 247 230 224 237 238 234 218 226 234 257 275 271 204 251 264 264 273 266 248 239 241
214 217 223 224 231 253 237 224 209 210 230 244 240 231 220 224 215 167 170 193 261 297 294 275 243 256 254 254 225 181 284 288 284 276 244 223 262 279 277 266 266 251 249
212 213 224 227 224 242 242 219 187 197 229 251 256 248 224 212 208 185 186 193 215 257 279 317 323 321 302 287 253 202 199 219 254 270 263 223 257 293 309 291 278 281 263
Height
1528 1529 1530 1531 1531 1532 1533 1534 1535 1536 1537 1538 1538 1539 1539 1540 1540 1540 1541 1541 1542 1542 1543 1543 1544 1544 1545 1545 1546 1546 1547 1547 1547 1548 1548 1549 1549 1549 1549 1550 1550 1551 1551
1530 1530 1530 1531 1531 1532 1533 1534 1535 1536 1537 1538 1538 1539 1539 1539 1540 1540 1541 1541 1542 1542 1542 1543 1543 1544 1545 1545 1545 1545 1546 1546 1546 1547 1547 1547 1547 1547 1548 1548 1548 1548 1549
1530 1530 1531 1531 1531 1532 1533 1534 1535 1536 1537 1538 1538 1539 1539 1539 1540 1540 1540 1541 1541 1542 1542 1542 1543 1543 1544 1544 1544 1544 1545 1545 1545 1545 1545 1545 1545 1546 1546 1546 1546 1546 1546
1531 1531 1531 1531 1532 1532 1533 1534 1535 1536 1537 1538 1538 1539 1539 1539 1540 1540 1540 1540 1541 1541 1541 1542 1542 1542 1543 1543 1543 1543 1543 1544 1544 1544 1544 1544 1544 1544 1543 1543 1543 1543 1544
1532 1532 1531 1532 1532 1533 1533 1534 1535 1535 1536 1537 1537 1538 1538 1538 1539 1539 1539 1539 1540 1540 1540 1541 1541 1541 1541 1541 1542 1541 1542 1542 1542 1542 1542 1542 1542 1542 1541 1541 1541 1541 1542
1532 1532 1532 1532 1532 1533 1533 1534 1534 1535 1536 1536 1536 1537 1537 1538 1538 1538 1538 1538 1538 1538 1539 1539 1539 1539 1540 1540 1540 1540 1540 1539 1539 1540 1540 1539 1539 1539 1539 1539 1539 1539 1539
1532 1532 1532 1532 1532 1533 1533 1534 1534 1535 1535 1536 1536 1536 1537 1537 1537 1537 1537 1537 1537 1537 1537 1538 1538 1538 1538 1538 1538 1538 1538 1537 1537 1537 1537 1536 1536 1536 1536 1536 1536 1536 1536
1532 1532 1532 1532 1532 1533 1533 1533 1534 1534 1535 1535 1535 1535 1536 1537 1536 1536 1536 1536 1536 1536 1536 1536 1537 1536 1536 1536 1536 1536 1536 1535 1535 1534 1534 1533 1533 1533 1533 1533 1533 1533 1533
1532 1532 1532 1532 1532 1532 1532 1533 1533 1533 1533 1534 1535 1535 1535 1534 1535 1535 1534 1534 1534 1534 1534 1535 1534 1534 1535 1534 1534 1534 1534 1533 1533 1532 1531 1530 1530 1531 1530 1530 1530 1530 1530
1531 1532 1532 1532 1532 1532 1532 1532 1532 1532 1532 1533 1533 1534 1534 1534 1534 1534 1534 1533 1533 1533 1533 1533 1533 1533 1533 1532 1532 1532 1531 1531 1530 1529 1529 1528 1528 1527 1527 1527 1527 1527 1527
1531 1531 1531 1531 1531 1531 1531 1531 1531 1531 1531 1532 1532 1532 1532 1533 1533 1532 1532 1532 1532 1532 1531 1531 1531 1531 1531 1530 1530 1530 1529 1529 1528 1527 1527 1526 1525 1525 1525 1525 1524 1524 1524
1531 1531 1531 1530 1530 1530 1530 1530 1530 1531 1531 1531 1531 1531 1531 1531 1531 1531 1530 1530 1530 1530 1530 1529 1529 1529 1528 1528 1528 1527 1527 1526 1526 1525 1524 1524 1523 1523 1522 1522 1521 1521 1521
1530 1530 1530 1530 1530 1530 1529 1529 1529 1529 1529 1529 1529 1529 1529 1529 1529 1529 1529 1528 1528 1528 1528 1528 1527 1527 1527 1526 1526 1525 1525 1524 1523 1522 1521 1521 1520 1520 1519 1519 1518 1518 1517
1529 1529 1529 1529 1529 1529 1529 1528 1528 1528 1528 1528 1528 1528 1528 1528 1528 1528 1527 1527 1526 1526 1525 1526 1526 1525 1525 1524 1523 1523 1522 1521 1520 1519 1519 1518 1518 1517 1517 1516 1515 1515 1514
1528 1528 1528 1528 1528 1528 1528 1527 1527 1527 1527 1526 1526 1526 1526 1526 1526 1526 1525 1525 1526 1524 1523 1523 1523 1522 1522 1522 1521 1520 1519 1519 1518 1517 1516 1515 1515 1515 1514 1513 1513 1512 1511
1527 1527 1527 1527 1527 1526 1526 1526 1525 1525 1525 1525 1524 1524 1524 1523 1523 1523 1523 1523 1523 1523 1521 1520 1520 1520 1519 1519 1518 1517 1517 1516 1515 1514 1513 1513 1512 1511 1511 1510 1509 1509 1508
1525 1525 1525 1525 1525 1525 1525 1524 1524 1523 1523 1523 1522 1522 1521 1521 1521 1520 1520 1520 1520 1520 1519 1518 1518 1517 1516 1516 1515 1514 1514 1513 1512 1511 1511 1510 1509 1508 1508 1507 1506 1505 1505
1523 1523 1523 1523 1523 1523 1523 1523 1522 1522 1521 1520 1520 1520 1519 1519 1518 1518 1517 1517 1517 1517 1517 1515 1515 1514 1514 1513 1512 1511 1510 1509 1509 1508 1508 1507 1506 1505 1505 1504 1503 1502 1502
1521 1521 1521 1521 1521 1521 1520 1520 1520 1519 1519 1518 1518 1517 1516 1516 1515 1514 1514 1514 1514 1514 1514 1513 1512 1511 1511 1510 1509 1508 1507 1506 1505 1505 1504 1504 1503 1502 1501 1501 1500 1499 1498
1518 1518 1519 1519 1518 1518 1518 1517 1517 1516 1516 1515 1515 1514 1513 1512 1511 1511 1511 1511 1511 1511 1510 1510 1509 1508 1507 1507 1506 1505 1503 1503 1502 1501 1500 1500 1499 1499 1498 1497 1496 1496 1495
1515 1516 1516 1516 1516 1515 1515 1514 1514 1513 1513 1512 1511 1511 1510 1509 1508 1508 1507 1507 1507 1507 1507 1506 1505 1504 1503 1503 1502 1501 1500 1499 1498 1498 1497 1496 1496 1495 1494 1494 1493 1492 1492
1512 1512 1512 1512 1512 1512 1511 1511 1511 1510 1509 1509 1508 1507 1506 1505 1504 1504 1503 1503 1503 1503 1502 1502 1501 1501 1500 1500 1499 1498 1497 1496 1495 1495 1493 1492 1492 1491 1490 1490 1490 1489 1488
1508 1508 1508 1508 1508 1508 1508 1508 1507 1507 1506 1505 1504 1503 1502 1502 1501 1500 1499 1499 1500 1499 1499 1499 1498 1498 1497 1497 1496 1495 1494 1493 1492 1491 1490 1488 1488 1487 1487 1486 1486 1485 1484
1504 1504 1504 1504 1504 1504 1504 1504 1503 1503 1502 1501 1501 1500 1499 1499 1498 1497 1496 1495 1495 1495 1495 1495 1495 1495 1494 1494 1493 1492 1491 1490 1489 1488 1487 1485 1484 1483 1483 1482 1482 1481 1481
1500 1500 1501 1500 1500 1500 1500 1500 1499 1498 1498 1497 1497 1496 1496 1495 1495 1494 1493 1492 1491 1491 1492 1492 1492 1491 1491 1490 1490 1489 1487 1486 1484 1484 1484 1482 1480 1479 1479 1478 1478 1477 1477
1496 1497 1496 1496 1496 1496 1496 1496 1495 1494 1493 1493 1492 1492 1492 1491 1491 1491 1490 1489 1488 1488 1488 1488 1487 1487 1486 1486 1485 1485 1484 1483 1481 1480 1479 1479 1477 1476 1475 1474 1474 1474 1473